星链-30762 (STARLINK-30762 )

导读

STARLINK-30762是美国星链计划的卫星,由SpaceX在2023年10月30日发射,属于Starlink Gen2星座组网卫星,旨在为全球提供高速低延迟互联网覆盖。星链通过大规模低轨卫星部署,弥补地面网络覆盖盲区,同时也引发了天文观测、空间碎片等领域的争议。

基本信息
目录编号:
58197
目录名称:
STARLINK-30762
国际标识:
2023-167Y
轨道中心:
EARTH
卫星名称:
星链-30762
卫星全名:
星链-30762 (STARLINK-30762 )
卫星状态:
在轨 (已飞行1047 天)
发射日期:
2023-10-30 UTC
国别 :
美国 (US)
星等 :
--
该卫星已列入 空间交会检测服务 Space Conjunction Data Service (SCDS) ,当前飞行风险评估等级: 高风险
轨道信息
数据来源 国际轨道数据 AOE轨道数据
星历时间 2026-09-11T11:22:22+0800
13小时前
查看轨道信息
2026-09-10T23:00:00+0800
1天前
查看轨道信息
半长轴 6861.195km 6861.142km
偏心率 0.0001098 0.000001
轨道倾角 43.001° 43.001°
近地点辐角 262.012° 23.269°
升交点赤经 176.384° 179.296°
平近点角 98.061° 18.424°
近地点 482.304km 482.998km
远地点 483.812km 483.012km
周期 94.267分钟 94.266分钟
每日圈数 15.275773 15.275949
详细信息
固有亮度:
5
最大亮度:
0.3
卫星平台:
Starlink v2.0 mini
覆盖范围:
全球
运营商:
太空探索技术公司
运营商所在国:
美国
制造商(研发单位):
太空探索技术公司
制造商所在国:
美国
使用方式:
暂无
卫星简介
星链(Starlink)计划是由太空探索技术公司(SpaceX)提出的一个巨型低轨卫星互联网星座项目,计划在2019年至2024年间在太空搭建由约1.2万颗卫星组成的“星链”网络,其中1584颗将部署在地球上空550千米处的近地轨道,并从2020年开始工作。该卫星仍在工作。
2D轨道图
3D轨道图
轨道高度分析图
轨道倾角分析图
轨道综合分析图
查看轨道综合分析图
与全量物体交会距离演化趋势
与全量物体交会风险概率演化趋势